Date String (YYYY-MM-DD hh:mm:ss) UTC,Instrument flags,absolute air pressure of the measurement (hPa),sample flow rate (lpm),inlet stack bypass flow (lpm),air temperature of the measurement (°C),ambient temperature measured by the external sensor (°C),aerosol sample conditioner tube jacket temperature (°C),OPC LED temperature (°C),internal box temperature (°C),relative humidity of the measurement (%),span deviation,mass concentration of particles derived from Lorenz-Mie calculation of OPC scattering (μg/m³),mass concentration of particles derived from Lorenz-Mie calculation of OPC scattering (μg/m³),mass concentration of particles derived from Lorenz-Mie calculation of OPC scattering (μg/m³)
DateTimeUTC,F1_M11,P_M11,Q1_M11,Q2_M11,T1_M11,T2_M11,T3_M11,T4_M11,T5_M11,U1_M11,ZSPAN_M11,X0_M11,X2_M11,X1_M11
2024-04-05 20:00:00,SystemResetWarning,0817.5,5.00,000.00,025.8,025.2,000.0,034.2,027.6,014.6,0002.4,0028.61,0008.58,0006.75
2024-04-05 20:01:00,SystemResetWarning,0817.5,5.00,000.00,025.8,025.2,000.0,034.2,027.6,014.9,0001.6,0026.79,0008.27,0006.49
2024-04-05 20:02:00,SystemResetWarning,0817.5,5.00,000.00,025.8,025.2,000.0,034.2,027.6,017.1,0001.7,0026.60,0008.08,0006.29
2024-04-05 20:03:00,SystemResetWarning,0817.5,5.00,000.00,025.8,025.2,000.0,034.2,027.7,015.2,0000.3,0027.85,0007.89,0006.15
2024-04-05 20:04:00,SystemResetWarning,0817.5,5.00,000.00,025.9,025.3,000.0,034.2,027.7,014.0,0000.0,0028.19,0007.81,0006.07
2024-04-05 20:05:00,SystemResetWarning,0817.5,5.00,000.00,025.9,025.3,000.0,034.2,027.7,012.6,0000.0,0027.91,0007.57,0005.81
2024-04-05 20:06:00,SystemResetWarning,0817.3,5.00,000.00,025.9,025.3,000.0,034.2,027.7,011.9,0000.0,0026.49,0007.10,0005.45
2024-04-05 20:07:00,SystemResetWarning,0817.3,5.01,000.00,025.9,025.3,000.0,034.3,027.7,012.9,0000.0,0024.79,0006.63,0005.12
2024-04-05 20:08:00,SystemResetWarning,0817.3,5.01,000.00,025.9,025.3,000.0,034.3,027.7,011.2,0000.0,0023.98,0006.20,0004.80
2024-04-05 20:09:00,SystemResetWarning,0817.3,5.01,000.00,025.9,025.3,000.0,034.3,027.7,011.7,0000.0,0025.10,0005.96,0004.58
2024-04-05 20:10:00,SystemResetWarning,0817.3,5.00,000.00,025.9,025.3,000.0,034.3,027.8,014.7,0000.0,0025.13,0005.89,0004.51
2024-04-05 20:11:00,SystemResetWarning,0817.3,5.00,000.00,025.9,025.3,000.0,034.3,027.8,016.7,0000.0,0025.98,0005.97,0004.57
2024-04-05 20:12:00,SystemResetWarning,0817.4,5.00,000.00,026.0,025.3,000.0,034.3,027.8,016.8,0000.0,0027.82,0006.19,0004.68
2024-04-05 20:13:00,SystemResetWarning,0817.3,5.00,000.00,026.0,025.3,000.0,034.3,027.8,016.8,0000.0,0028.58,0006.28,0004.74
2024-04-05 20:14:00,SystemResetWarning,0817.1,5.00,000.00,026.0,025.3,000.0,034.4,027.8,016.4,0000.0,0029.39,0006.37,0004.77
2024-04-05 20:15:00,SystemResetWarning,0817.1,5.00,000.00,026.0,025.4,000.0,034.4,027.8,015.7,0000.0,0029.33,0006.48,0004.86
2024-04-05 20:16:00,SystemResetWarning,0817.1,5.00,000.00,026.0,025.4,000.0,034.4,027.8,015.6,0000.0,0029.19,0006.64,0005.04
2024-04-05 20:17:00,SystemResetWarning,0817.0,5.00,000.00,026.0,025.4,000.0,034.4,027.9,016.0,0001.2,0030.73,0006.85,0005.23
2024-04-05 20:18:00,SystemResetWarning,0816.9,5.00,000.00,026.0,025.4,000.0,034.4,027.9,014.7,0004.1,0031.40,0007.07,0005.39
2024-04-05 20:19:00,SystemResetWarning,0817.1,5.00,000.00,026.0,025.4,000.0,034.4,027.9,014.6,0004.2,0031.92,0007.24,0005.51
2024-04-05 20:20:00,SystemResetWarning,0817.1,5.00,000.00,026.0,025.4,000.0,034.4,027.9,014.2,0004.5,0032.13,0007.45,0005.66
2024-04-05 20:21:00,SystemResetWarning,0817.1,5.00,000.00,026.1,025.4,000.0,034.5,027.9,014.4,0004.6,0032.19,0007.51,0005.71
2024-04-05 20:22:00,SystemResetWarning,0817.0,5.00,000.00,026.1,025.4,000.0,034.5,027.9,014.3,0004.5,0032.38,0007.41,0005.62
2024-04-05 20:23:00,SystemResetWarning,0817.0,5.01,000.00,026.1,025.5,000.0,034.5,027.9,013.9,0001.8,0031.59,0007.18,0005.47
2024-04-05 20:24:00,SystemResetWarning,0816.9,5.01,000.00,026.1,025.5,000.0,034.5,027.9,013.3,0000.0,0030.71,0006.88,0005.26
2024-04-05 20:25:00,SystemResetWarning,0816.9,5.00,000.00,026.1,025.5,000.0,034.5,027.9,013.6,0000.0,0027.86,0006.55,0005.01
2024-04-05 20:26:00,SystemResetWarning,0816.9,5.00,000.00,026.1,025.5,000.0,034.5,028.0,012.0,0000.0,0026.44,0006.24,0004.76
2024-04-05 20:27:00,SystemResetWarning,0816.9,5.00,000.00,026.1,025.5,000.0,034.5,028.0,011.0,0000.0,0023.72,0005.83,0004.42
2024-04-05 20:28:00,SystemResetWarning,0816.9,5.00,000.00,026.1,025.5,000.0,034.5,028.0,013.3,0000.0,0021.59,0005.52,0004.19
2024-04-05 20:29:00,SystemResetWarning,0816.9,5.01,000.00,026.2,025.5,000.0,034.6,028.0,012.8,0000.0,0021.76,0005.32,0004.03
2024-04-05 20:30:00,SystemResetWarning,0816.9,5.00,000.00,026.2,025.5,000.0,034.6,028.0,009.8,0000.0,0020.57,0005.04,0003.81
2024-04-05 20:31:00,SystemResetWarning,0816.9,4.99,000.00,026.2,025.5,000.0,034.6,028.0,009.2,0000.0,0018.69,0004.66,0003.55
2024-04-05 20:32:00,SystemResetWarning,0816.9,5.01,000.00,026.2,025.5,000.0,034.6,028.0,009.1,0000.0,0018.19,0004.33,0003.31
2024-04-05 20:33:00,SystemResetWarning,0816.9,5.00,000.00,026.2,025.5,000.0,034.6,028.0,009.2,0000.0,0017.93,0004.17,0003.18
2024-04-05 20:34:00,SystemResetWarning,0816.8,4.99,000.00,026.2,025.5,000.0,034.6,028.0,009.6,0000.0,0016.52,0003.91,0002.95
2024-04-05 20:35:00,SystemResetWarning,0816.8,5.00,000.00,026.2,025.4,000.0,034.6,028.0,009.4,0000.0,0015.42,0003.60,0002.56
2024-04-05 20:36:00,SystemResetWarning,0816.7,5.00,000.00,026.2,025.5,000.0,034.6,028.0,009.2,0000.0,0014.90,0003.38,0002.25
2024-04-05 20:37:00,SystemResetWarning,0816.6,5.00,000.00,026.2,025.5,000.0,034.6,028.0,009.8,0000.0,0014.44,0003.14,0002.00
2024-04-05 20:38:00,SystemResetWarning,0816.6,5.00,000.00,026.2,025.5,000.0,034.6,028.0,010.0,0000.0,0013.99,0003.02,0001.87
2024-04-05 20:39:00,SystemResetWarning,0816.6,4.99,000.00,026.2,025.5,000.0,034.7,028.0,009.7,0000.0,0015.11,0002.99,0001.82
2024-04-05 20:40:00,SystemResetWarning,0816.5,5.00,000.00,026.2,025.5,000.0,034.7,028.0,009.6,0000.0,0015.16,0002.80,0001.62
2024-04-05 20:41:00,SystemResetWarning,0816.5,4.99,000.00,026.2,025.4,000.0,034.7,028.0,008.9,0000.0,0013.46,0002.53,0001.39
2024-04-05 20:42:00,SystemResetWarning,0816.6,5.00,000.00,026.2,025.4,000.0,034.7,028.0,009.2,0000.0,0013.71,0002.47,0001.36
2024-04-05 20:43:00,SystemResetWarning,0816.6,5.00,000.00,026.2,025.4,000.0,034.7,028.0,008.8,0000.0,0014.25,0002.49,0001.37
2024-04-05 20:44:00,SystemResetWarning,0816.5,5.00,000.00,026.2,025.4,000.0,034.7,028.0,008.7,0000.0,0013.72,0002.49,0001.36
2024-04-05 20:45:00,SystemResetWarning,0816.4,5.00,000.00,026.2,025.5,000.0,034.7,028.0,008.6,0000.0,0013.23,0002.52,0001.36
2024-04-05 20:46:00,SystemResetWarning,0816.3,5.00,000.00,026.2,025.5,000.0,034.7,028.0,008.9,0000.0,0014.27,0002.55,0001.36
2024-04-05 20:47:00,SystemResetWarning,0816.4,5.00,000.00,026.2,025.5,000.0,034.7,028.0,008.6,0000.0,0014.89,0002.64,0001.38
2024-04-05 20:48:00,SystemResetWarning,0816.3,5.00,000.00,026.2,025.5,000.0,034.7,028.0,009.6,0000.0,0014.00,0002.68,0001.38
2024-04-05 20:49:00,SystemResetWarning,0816.3,5.00,000.00,026.3,025.5,000.0,034.7,028.1,009.5,0000.0,0013.68,0002.69,0001.38
2024-04-05 20:50:00,SystemResetWarning,0816.3,5.00,000.00,026.3,025.5,000.0,034.7,028.1,009.3,0000.0,0012.33,0002.67,0001.39
2024-04-05 20:51:00,SystemResetWarning,0816.2,5.00,000.00,026.3,025.5,000.0,034.7,028.1,008.9,0000.0,0011.79,0002.61,0001.39
2024-04-05 20:52:00,SystemResetWarning,0816.2,4.99,000.00,026.3,025.5,000.0,034.7,028.1,008.8,0000.0,0011.55,0002.57,0001.38
2024-04-05 20:53:00,SystemResetWarning,0816.1,5.00,000.00,026.3,025.5,000.0,034.7,028.1,008.6,0000.0,0010.91,0002.49,0001.37
2024-04-05 20:54:00,SystemResetWarning,0816.1,5.00,000.00,026.3,025.5,000.0,034.7,028.1,008.2,0000.0,0010.45,0002.44,0001.36
2024-04-05 20:55:00,SystemResetWarning,0816.1,5.00,000.00,026.3,025.5,000.0,034.8,028.1,007.7,0000.0,0010.10,0002.43,0001.36
2024-04-05 20:56:00,SystemResetWarning,0816.0,5.01,000.00,026.3,025.5,000.0,034.8,028.1,007.9,0000.0,0011.08,0002.33,0001.35
2024-04-05 20:57:00,SystemResetWarning,0815.9,5.01,000.00,026.3,025.5,000.0,034.8,028.1,008.1,0000.0,0009.59,0002.23,0001.32
2024-04-05 20:58:00,SystemResetWarning,0815.8,5.00,000.00,026.3,025.5,000.0,034.8,028.1,008.4,0000.0,0008.63,0002.18,0001.29
2024-04-05 20:59:00,SystemResetWarning,0815.9,5.00,000.00,026.3,025.5,000.0,034.8,028.1,008.3,0000.0,0009.08,0002.11,0001.28
